Starlink 32912

operational
NORAD ID: 63088 Int'l Des: 2025-037 Owner: SPXS Country: US Constellation: starlink
LEOCIRCULAR

Starlink 32912について

説明を読み込み中...

リアルタイム位置

3D地球を読み込み中...

次回通過

高度履歴

Altitude vs Time

uPlot chart will show altitude changes over time

軌道要素

1 63088U 25037M 25305.42718130 .00000623 00000-0 60038-4 0 9995
2 63088 70.0009 317.6895 0003277 268.6605 91.4179 14.98327659 39494
Epoch: Nov 1, 2025 • Age: 14 hours

現在のステータス

高度 574.1 km
速度 7.57 km/s
衛星直下点 6.14°N, 94.89°E
打ち上げ日 Feb 23, 2025
運用期間 0.6 years
タイプ internet

技術仕様

分類 Payload
質量 730.00 kg
乾燥質量 700.00 kg
総質量 730.00 kg
長さ 0.30 m
直径 4.10 m
スパン 29.00 m
形状 Box + pan
製造者 SPXS
バスタイプ Starlink V2M
フェーズステータス In Orbit
所有者/国 SPXS/US

大規模コンステレーション

Loading constellations...